Great Bend, KS

6:26 PM CST on November 20, 2019 (GMT -0600)
Great Bend Municipal

Weather History for KGBD - October, 2019

Change the Weather History Date:

Tuesday, October 22, 2019

  Actual Average Record
Temperature  
Mean Temperature 50 °F -  
Max Temperature 66 °F 71 °F 88 °F (1975)
Min Temperature 35 °F 45 °F 24 °F (2006)
Degree Days  
Heating Degree Days 16    
Moisture  
Dew Point 27 °F    
Average Humidity 45    
Maximum Humidity 65    
Minimum Humidity 26    
Precipitation  
Precipitation 0.00 in - - ()
Sea Level Pressure  
Sea Level Pressure 30.07 in    
Wind  
Wind Speed 12 mph (West)    
Max Wind Speed 24 mph    
Max Gust Speed 29 mph    
Visibility 10 miles    
Events      
Averages and records for this station are not official NWS values.
T = Trace of Precipitation, MM = Missing Value Source: NWS Daily Summary

Daily Weather History Graph

Daily Weather History Graph

Search for Another Location

Airport or City:

Astronomy

Oct. 22, 2019 Rise Set
Actual Time 7:51 AM CDT 6:48 PM CDT
Civil Twilight 7:24 AM CDT 7:15 PM CDT
Nautical Twilight 6:53 AM CDT 7:45 PM CDT
Astronomical Twilight 6:22 AM CDT 8:16 PM CDT
Moon 1:09 AM CDT (10/22) 3:52 PM CDT (10/22)
Length of Visible Light 11h 50m
Length of Day
10h 57m
Last Quarter, 37% of the Moon is Illuminated
Oct 22
Last Quarter
Oct 27
New
Nov 4
First Quarter
Nov 12
Full
Nov 19
Last Quarter

Hourly Weather History & Observations

Time (CDT) Temp. Windchill Dew Point Humidity Pressure Visibility Wind Dir Wind Speed Gust Speed Precip Events Conditions
12:56 AM 39.0 °F 32.3 °F 21.0 °F 49% 30.08 in 10.0 mi West 10.4 mph - N/A   Clear
1:56 AM 36.0 °F 28.5 °F 21.9 °F 57% 30.09 in 10.0 mi West 10.4 mph - N/A   Clear
2:56 AM 35.1 °F 26.9 °F 21.9 °F 59% 30.10 in 10.0 mi West 11.5 mph - N/A   Clear
3:56 AM 37.9 °F 30.9 °F 23.0 °F 55% 30.10 in 10.0 mi West 10.4 mph - N/A   Clear
4:56 AM 37.9 °F 30.5 °F 24.1 °F 57% 30.10 in 10.0 mi West 11.5 mph - N/A   Clear
6:56 AM 37.9 °F 30.5 °F 26.1 °F 62% 30.13 in 10.0 mi West 11.5 mph - N/A   Clear
7:56 AM 37.0 °F 29.3 °F 26.1 °F 65% 30.15 in 10.0 mi WNW 11.5 mph - N/A   Clear
8:56 AM 41.0 °F 33.5 °F 27.0 °F 57% 30.17 in 10.0 mi West 13.8 mph - N/A   Clear
9:56 AM 48.9 °F - 28.9 °F 46% 30.17 in 10.0 mi WNW 18.4 mph - N/A   Clear
10:56 AM 53.1 °F - 30.0 °F 41% 30.18 in 10.0 mi WNW 18.4 mph - N/A   Clear
11:56 AM 57.9 °F - 30.0 °F 35% 30.16 in 10.0 mi WNW 18.4 mph 25.3 mph N/A   Clear
12:56 PM 60.1 °F - 27.0 °F 28% 30.13 in 10.0 mi WNW 20.7 mph 25.3 mph N/A   Clear
1:56 PM 62.1 °F - 28.0 °F 28% 30.10 in 10.0 mi WNW 19.6 mph 28.8 mph N/A   Partly Cloudy
2:56 PM 64.0 °F - 28.0 °F 26% 30.07 in 10.0 mi West 24.2 mph 28.8 mph N/A   Mostly Cloudy
5:56 PM 64.0 °F - 28.9 °F 27% 30.00 in 10.0 mi West 15.0 mph - N/A   Mostly Cloudy
6:56 PM 57.0 °F - 30.0 °F 36% 29.99 in 10.0 mi West 3.5 mph - N/A   Clear
7:56 PM 52.0 °F - 28.9 °F 41% 30.00 in 10.0 mi Calm Calm - N/A   Clear
8:56 PM 45.0 °F 40.6 °F 28.9 °F 53% 29.99 in 10.0 mi South 8.1 mph - N/A   Clear
9:56 PM 45.0 °F 40.6 °F 28.9 °F 53% 29.97 in 10.0 mi South 8.1 mph - N/A   Clear
10:56 PM 50.0 °F - 28.9 °F 44% 29.93 in 10.0 mi South 10.4 mph - N/A   Clear
11:56 PM 55.9 °F - 27.0 °F 33% 29.90 in 10.0 mi SSW 15.0 mph - N/A   Clear